User: anonymous   Login
Location: Hamburg
(53.5500°N, 10.0000°E)
Time: 20:56:47
(UTC+01:00)
Language:

Iridium 10 - Orbit

View from above orbital plane
View from above orbital plane
View from above satellite
View from above satellite

Ground track
Ground track

The orbit data is extracted from the following two-line orbital elements,

1 24839U 97030D   17349.50145417  .00000171  00000-0  54078-4 0  9993
2 24839  86.3966 274.2423 0002003  81.5590  31.4810 14.34218253 72945
Epoch (UTC): 15 December 2017 12:02:05
Eccentricity: 0.0002003
inclination: 86.3966°
perigee height: 776 km
apogee height: 779 km
right ascension of ascending node: 274.2423°
argument of perigee: 81.5590°
revolutions per day: 14.34218253
mean anomaly at epoch: 31.4810°
orbit number at epoch: 7294

The dashed part of the orbit path shows where the satellite is in the earth's shadow,  

DLR